Flagstaff, AZ

7:56 PM MST on February 24, 2018 (GMT -0700)
Flagstaff Pulliam

Weather History for KFLG - April, 2012

Change the Weather History Date:

Tuesday, April 3, 2012

  Actual Average Record
Temperature  
Mean Temperature 40 °F 40 °F  
Max Temperature 59 °F 55 °F 71 °F (1961)
Min Temperature 21 °F 26 °F 8 °F (1980)
Degree Days  
Heating Degree Days 25 25  
Month to date heating degree days 78 75  
Since 1 July heating degree days 5615 5782  
Cooling Degree Days 0 0  
Month to date cooling degree days 0 0  
Year to date cooling degree days 0 0  
Moisture  
Dew Point 18 °F    
Average Humidity 46    
Maximum Humidity 74    
Minimum Humidity 18    
Precipitation  
Precipitation 0.00 in 0.05 in 1.02 in (1965)
Month to date precipitation T 0.15  
Year to date precipitation 3.22 6.48  
Snow  
Snow 0.00 in 0.30 in 10.20 in (1965)
Month to date snowfall T 1.0  
Since 1 July snowfall 92.5 94.9  
Snow Depth 0.00 in    
Sea Level Pressure  
Sea Level Pressure 29.93 in    
Wind  
Wind Speed 5 mph (WSW)    
Max Wind Speed 17 mph    
Max Gust Speed 22 mph    
Visibility 10 miles    
Events      
T = Trace of Precipitation, MM = Missing Value Source: NWS Daily Summary

Daily Weather History Graph

Daily Weather History Graph

Search for Another Location

Airport or City:

Trip Planner

Search our weather history database for the weather conditions in past years. The results will help you decide how hot, cold, wet, or windy it might be!

Date:

Astronomy

Apr. 03, 2012 Rise Set
Actual Time 6:09 AM MST 6:50 PM MST
Civil Twilight 5:44 AM MST 7:15 PM MST
Nautical Twilight 5:14 AM MST 7:46 PM MST
Astronomical Twilight 4:43 AM MST 8:17 PM MST
Moon 3:44 PM MST (4/3) 3:52 AM MST (4/3)
Length of Visible Light 13h 31m
Length of Day
12h 40m
Waxing Gibbous, 87% of the Moon is Illuminated
Apr 3
Waxing Gibbous
Apr 6
Full
Apr 13
Last Quarter
Apr 21
New
Apr 29
First Quarter

Hourly Weather History & Observations

Time (MST) Temp. Windchill Dew Point Humidity Pressure Visibility Wind Dir Wind Speed Gust Speed Precip Events Conditions
12:57 AM 26.1 °F - 12.9 °F 58% 29.90 in 10.0 mi Calm Calm - N/A   Clear
1:57 AM 26.1 °F - 14.0 °F 60% 29.94 in 10.0 mi Calm Calm - N/A   Clear
2:57 AM 24.1 °F 19.7 °F 14.0 °F 65% 29.93 in 10.0 mi ENE 3.5 mph - N/A   Clear
3:57 AM 24.1 °F - 14.0 °F 65% 29.94 in 10.0 mi Calm Calm - N/A   Clear
4:57 AM 21.9 °F - 14.0 °F 72% 29.96 in 10.0 mi Calm Calm - N/A   Clear
5:57 AM 21.0 °F - 14.0 °F 74% 29.99 in 10.0 mi Calm Calm - N/A   Clear
6:57 AM 25.0 °F - 18.0 °F 75% 30.01 in 10.0 mi Calm Calm - N/A   Clear
7:57 AM 39.0 °F 35.7 °F 21.0 °F 49% 29.98 in 10.0 mi Variable 4.6 mph - N/A   Clear
8:57 AM 44.1 °F 40.8 °F 21.9 °F 42% 29.96 in 10.0 mi Variable 5.8 mph - N/A   Clear
9:57 AM 46.9 °F - 23.0 °F 39% 29.94 in 10.0 mi SSW 3.5 mph - N/A   Clear
10:57 AM 51.1 °F - 23.0 °F 33% 29.94 in 10.0 mi Variable 5.8 mph - N/A   Clear
11:57 AM 53.1 °F - 21.9 °F 30% 29.90 in 10.0 mi SW 3.5 mph - N/A   Clear
12:57 PM 55.0 °F - 21.9 °F 28% 29.90 in 10.0 mi SW 12.7 mph 18.4 mph N/A   Clear
1:57 PM 55.9 °F - 19.9 °F 25% 29.89 in 10.0 mi WSW 9.2 mph - N/A   Scattered Clouds
2:57 PM 57.9 °F - 19.9 °F 23% 29.88 in 10.0 mi West 10.4 mph 17.3 mph N/A   Scattered Clouds
3:57 PM 57.9 °F - 18.0 °F 21% 29.87 in 10.0 mi WNW 8.1 mph - N/A   Clear
4:57 PM 57.9 °F - 15.1 °F 19% 29.89 in 10.0 mi West 13.8 mph 21.9 mph N/A   Clear
5:57 PM 55.9 °F - 12.9 °F 18% 29.91 in 10.0 mi Variable 5.8 mph - N/A   Clear
6:57 PM 50.0 °F - 17.1 °F 27% 29.94 in 10.0 mi Calm Calm - N/A   Clear
7:57 PM 45.0 °F 40.6 °F 21.0 °F 39% 29.93 in 10.0 mi SSW 8.1 mph - N/A   Clear
8:57 PM 42.1 °F 38.4 °F 19.9 °F 41% 29.95 in 10.0 mi SW 5.8 mph - N/A   Clear
9:57 PM 39.0 °F 34.0 °F 19.9 °F 46% 29.96 in 10.0 mi SW 6.9 mph - N/A   Clear
10:57 PM 34.0 °F - 18.0 °F 52% 29.96 in 10.0 mi Calm Calm - N/A   Clear
11:57 PM 30.9 °F - 18.0 °F 59% 29.97 in 10.0 mi Calm Calm - N/A   Clear